Year,Month,Day,Hour,Minute,Value (Times are PST for temperature in C)
2012,09,18,00,00,12.90
2012,09,18,00,01,12.80
2012,09,18,00,02,12.80
2012,09,18,00,03,12.80
2012,09,18,00,04,12.70
2012,09,18,00,05,12.70
2012,09,18,00,06,12.70
2012,09,18,00,07,12.60
2012,09,18,00,08,12.60
2012,09,18,00,09,12.60
2012,09,18,00,10,12.50
2012,09,18,00,11,12.50
2012,09,18,00,12,12.50
2012,09,18,00,17,12.30
2012,09,18,00,18,12.30
2012,09,18,00,19,12.30
2012,09,18,00,20,12.30
2012,09,18,00,21,12.30
2012,09,18,00,22,12.30
2012,09,18,00,23,12.40
2012,09,18,00,24,12.40
2012,09,18,00,25,12.40
2012,09,18,00,26,12.50
2012,09,18,00,27,12.60
2012,09,18,00,28,12.60
2012,09,18,00,29,12.60
2012,09,18,00,30,12.60
2012,09,18,00,31,12.60
2012,09,18,00,32,12.60
2012,09,18,00,33,12.60
2012,09,18,00,34,12.50
2012,09,18,00,35,12.60
2012,09,18,00,36,12.60
2012,09,18,00,37,12.60
2012,09,18,00,38,12.70
2012,09,18,00,39,12.70
2012,09,18,00,40,12.70
2012,09,18,00,41,12.70
2012,09,18,00,42,12.60
2012,09,18,00,43,12.60
2012,09,18,00,44,12.50
2012,09,18,00,45,12.50
2012,09,18,00,46,12.40
2012,09,18,00,47,12.40
2012,09,18,00,48,12.30
2012,09,18,00,49,12.30
2012,09,18,00,50,12.30
2012,09,18,00,51,12.20
2012,09,18,00,52,12.20
2012,09,18,00,53,12.20
2012,09,18,00,54,12.10
2012,09,18,00,55,12.10
2012,09,18,00,56,12.10
2012,09,18,00,57,12.00
2012,09,18,00,58,12.00
2012,09,18,00,59,12.00
2012,09,18,01,00,12.00
2012,09,18,01,01,12.00
2012,09,18,01,02,12.00
2012,09,18,01,03,12.00
2012,09,18,01,04,12.00
2012,09,18,01,05,12.10
2012,09,18,01,06,12.10
2012,09,18,01,07,12.10
2012,09,18,01,08,12.10
2012,09,18,01,09,12.10
2012,09,18,01,10,12.10
2012,09,18,01,11,12.10
2012,09,18,01,12,12.10
2012,09,18,01,13,12.10
2012,09,18,01,14,12.10
2012,09,18,01,15,12.10
2012,09,18,01,16,12.10
2012,09,18,01,17,12.10
2012,09,18,01,18,12.00
2012,09,18,01,19,12.00
2012,09,18,01,20,12.00
2012,09,18,01,21,11.90
2012,09,18,01,22,11.90
2012,09,18,01,23,11.90
2012,09,18,01,24,11.90
2012,09,18,01,25,11.90
2012,09,18,01,26,11.90
2012,09,18,01,27,11.90
2012,09,18,01,28,11.90
2012,09,18,01,29,11.90
2012,09,18,01,30,11.90
2012,09,18,01,31,11.90
2012,09,18,01,32,11.90
2012,09,18,01,33,11.90
2012,09,18,01,34,11.90
2012,09,18,01,35,11.90
2012,09,18,01,36,11.90
2012,09,18,01,37,11.90
2012,09,18,01,38,11.80
2012,09,18,01,39,11.80
2012,09,18,01,40,11.80
2012,09,18,01,41,11.80
2012,09,18,01,42,11.90
2012,09,18,01,43,11.90
2012,09,18,01,44,11.90
2012,09,18,01,45,12.00
2012,09,18,01,46,12.00
2012,09,18,01,47,12.00
2012,09,18,01,48,12.00
2012,09,18,01,49,12.00
2012,09,18,01,50,12.00
2012,09,18,01,51,12.10
2012,09,18,01,52,12.10
2012,09,18,01,53,12.10
2012,09,18,01,54,12.10
2012,09,18,01,55,12.10
2012,09,18,01,56,12.00
2012,09,18,01,57,12.00
2012,09,18,01,58,12.00
2012,09,18,01,59,12.00
2012,09,18,02,00,12.00
2012,09,18,02,01,12.00
2012,09,18,02,02,12.00
2012,09,18,02,03,12.00
2012,09,18,02,04,12.00
2012,09,18,02,05,12.10
2012,09,18,02,06,12.10
2012,09,18,02,07,12.10
2012,09,18,02,08,12.10
2012,09,18,02,09,12.20
2012,09,18,02,10,12.20
2012,09,18,02,11,12.10
2012,09,18,02,12,12.10
2012,09,18,02,13,12.10
2012,09,18,02,14,12.00
2012,09,18,02,15,12.00
2012,09,18,02,16,11.90
2012,09,18,02,17,11.90
2012,09,18,02,18,11.90
2012,09,18,02,19,11.80
2012,09,18,02,20,11.80
2012,09,18,02,21,11.90
2012,09,18,02,22,11.90
2012,09,18,02,23,11.90
2012,09,18,02,24,11.90
2012,09,18,02,25,11.90
2012,09,18,02,26,11.90
2012,09,18,02,27,11.80
2012,09,18,02,28,11.80
2012,09,18,02,29,11.70
2012,09,18,02,30,11.70
2012,09,18,02,31,11.60
2012,09,18,02,32,11.50
2012,09,18,02,33,11.50
2012,09,18,02,34,11.40
2012,09,18,02,35,11.40
2012,09,18,02,36,11.40
2012,09,18,02,37,11.40
2012,09,18,02,38,11.40
2012,09,18,02,39,11.50
2012,09,18,02,40,11.50
2012,09,18,02,41,11.60
2012,09,18,02,42,11.60
2012,09,18,02,43,11.70
2012,09,18,02,44,11.70
2012,09,18,02,45,11.80
2012,09,18,02,46,11.80
2012,09,18,02,47,11.90
2012,09,18,02,48,11.90
2012,09,18,02,49,11.90
2012,09,18,02,50,11.90
2012,09,18,02,51,12.00
2012,09,18,02,52,12.00
2012,09,18,02,53,12.00
2012,09,18,02,54,12.00
2012,09,18,02,55,12.10
2012,09,18,02,56,12.10
2012,09,18,02,57,12.10
2012,09,18,02,58,12.10
2012,09,18,02,59,12.10
2012,09,18,03,00,12.10
2012,09,18,03,01,12.00
2012,09,18,03,02,12.00
2012,09,18,03,03,12.00
2012,09,18,03,04,12.00
2012,09,18,03,05,12.00
2012,09,18,03,06,11.90
2012,09,18,03,07,11.90
2012,09,18,03,08,11.90
2012,09,18,03,09,11.90
2012,09,18,03,10,11.90
2012,09,18,03,11,11.80
2012,09,18,03,12,11.80
2012,09,18,03,13,11.80
2012,09,18,03,14,11.80
2012,09,18,03,15,11.80
2012,09,18,03,16,11.80
2012,09,18,03,17,11.80
2012,09,18,03,18,11.90
2012,09,18,03,19,11.90
2012,09,18,03,20,11.90
2012,09,18,03,21,11.90
2012,09,18,03,22,12.00
2012,09,18,03,23,12.00
2012,09,18,03,24,12.00
2012,09,18,03,25,12.00
2012,09,18,03,26,12.00
2012,09,18,03,27,11.90
2012,09,18,03,28,11.90
2012,09,18,03,29,11.90
2012,09,18,03,30,11.90
2012,09,18,03,31,11.80
2012,09,18,03,32,11.80
2012,09,18,03,33,11.80
2012,09,18,03,34,11.70
2012,09,18,03,35,11.70
2012,09,18,03,36,11.60
2012,09,18,03,37,11.60
2012,09,18,03,38,11.60
2012,09,18,03,39,11.60
2012,09,18,03,40,11.50
2012,09,18,03,41,11.50
2012,09,18,03,42,11.50
2012,09,18,03,43,11.40
2012,09,18,03,44,11.40
2012,09,18,03,45,11.30
2012,09,18,03,46,11.30
2012,09,18,03,47,11.30
2012,09,18,03,48,11.20
2012,09,18,03,49,11.20
2012,09,18,03,50,11.20
2012,09,18,03,51,11.20
2012,09,18,03,52,11.20
2012,09,18,03,53,11.20
2012,09,18,03,54,11.20
2012,09,18,03,55,11.20
2012,09,18,03,56,11.20
2012,09,18,03,57,11.20
2012,09,18,03,58,11.20
2012,09,18,03,59,11.20
2012,09,18,04,00,11.20
2012,09,18,04,01,11.20
2012,09,18,04,02,11.20
2012,09,18,04,03,11.20
2012,09,18,04,04,11.10
2012,09,18,04,05,11.10
2012,09,18,04,06,11.10
2012,09,18,04,07,11.10
2012,09,18,04,08,11.10
2012,09,18,04,09,11.10
2012,09,18,04,10,11.10
2012,09,18,04,11,11.10
2012,09,18,04,12,11.10
2012,09,18,04,13,11.10
2012,09,18,04,14,11.10
2012,09,18,04,15,11.10
2012,09,18,04,16,11.10
2012,09,18,04,17,11.10
2012,09,18,04,18,11.10
2012,09,18,04,19,11.10
2012,09,18,04,20,11.10
2012,09,18,04,21,11.10
2012,09,18,04,22,11.00
2012,09,18,04,23,11.00
2012,09,18,04,24,11.00
2012,09,18,04,25,10.90
2012,09,18,04,26,10.90
2012,09,18,04,27,10.90
2012,09,18,04,28,10.90
2012,09,18,04,29,10.90
2012,09,18,04,30,10.90
2012,09,18,04,31,10.80
2012,09,18,04,32,10.80
2012,09,18,04,33,10.80
2012,09,18,04,34,10.80
2012,09,18,04,35,10.80
2012,09,18,04,36,10.80
2012,09,18,04,37,10.80
2012,09,18,04,38,10.80
2012,09,18,04,39,10.80
2012,09,18,04,40,10.80
2012,09,18,04,41,10.70
2012,09,18,04,42,10.70
2012,09,18,04,43,10.70
2012,09,18,04,44,10.60
2012,09,18,04,45,10.60
2012,09,18,04,46,10.60
2012,09,18,04,47,10.60
2012,09,18,04,48,10.50
2012,09,18,04,49,10.50
2012,09,18,04,50,10.40
2012,09,18,04,51,10.40
2012,09,18,04,52,10.40
2012,09,18,04,53,10.40
2012,09,18,04,54,10.40
2012,09,18,04,55,10.40
2012,09,18,04,56,10.30
2012,09,18,04,57,10.30
2012,09,18,04,58,10.30
2012,09,18,04,59,10.30
2012,09,18,05,00,10.20
2012,09,18,05,01,10.20
2012,09,18,05,02,10.20
2012,09,18,05,03,10.20
2012,09,18,05,04,10.20
2012,09,18,05,05,10.20
2012,09,18,05,06,10.20
2012,09,18,05,07,10.20
2012,09,18,05,08,10.20
2012,09,18,05,09,10.20
2012,09,18,05,10,10.20
2012,09,18,05,11,10.30
2012,09,18,05,12,10.30
2012,09,18,05,13,10.30
2012,09,18,05,14,10.30
2012,09,18,05,15,10.30
2012,09,18,05,16,10.30
2012,09,18,05,17,10.30
2012,09,18,05,18,10.30
2012,09,18,05,19,10.30
2012,09,18,05,20,10.30
2012,09,18,05,21,10.30
2012,09,18,05,22,10.30
2012,09,18,05,23,10.30
2012,09,18,05,24,10.30
2012,09,18,05,25,10.30
2012,09,18,05,26,10.30
2012,09,18,05,27,10.20
2012,09,18,05,28,10.20
2012,09,18,05,29,10.20
2012,09,18,05,30,10.10
2012,09,18,05,31,10.10
2012,09,18,05,32,10.00
2012,09,18,05,33,10.00
2012,09,18,05,34,9.90
2012,09,18,05,35,9.90
2012,09,18,05,36,9.90
2012,09,18,05,37,9.80
2012,09,18,05,38,9.70
2012,09,18,05,39,9.70
2012,09,18,05,40,9.70
2012,09,18,05,41,9.70
2012,09,18,05,42,9.70
2012,09,18,05,43,9.70
2012,09,18,05,44,9.70
2012,09,18,05,45,9.70
2012,09,18,05,46,9.80
2012,09,18,05,47,9.80
2012,09,18,05,48,9.80
2012,09,18,05,49,9.80
2012,09,18,05,50,9.80
2012,09,18,05,51,9.80
2012,09,18,05,52,9.80
2012,09,18,05,53,9.80
2012,09,18,05,54,9.70
2012,09,18,05,55,9.70
2012,09,18,05,56,9.70
2012,09,18,05,57,9.60
2012,09,18,05,58,9.60
2012,09,18,05,59,9.60
2012,09,18,06,00,9.60
2012,09,18,06,01,9.60
2012,09,18,06,02,9.60
2012,09,18,06,03,9.70
2012,09,18,06,04,9.70
2012,09,18,06,05,9.70
2012,09,18,06,06,9.70
2012,09,18,06,07,9.80
2012,09,18,06,08,9.80
2012,09,18,06,09,9.90
2012,09,18,06,10,9.90
2012,09,18,06,11,9.90
2012,09,18,06,12,9.90
2012,09,18,06,13,9.90
2012,09,18,06,14,9.90
2012,09,18,06,15,9.90
2012,09,18,06,16,9.90
2012,09,18,06,17,9.90
2012,09,18,06,18,9.90
2012,09,18,06,19,9.90
2012,09,18,06,20,9.90
2012,09,18,06,21,9.90
2012,09,18,06,22,9.90
2012,09,18,06,23,9.90
2012,09,18,06,24,9.90
2012,09,18,06,25,9.90
2012,09,18,06,26,9.90
2012,09,18,06,27,9.90
2012,09,18,06,28,9.90
2012,09,18,06,29,9.80
2012,09,18,06,30,9.80
2012,09,18,06,31,9.80
2012,09,18,06,32,9.70
2012,09,18,06,33,9.70
2012,09,18,06,34,9.70
2012,09,18,06,35,9.70
2012,09,18,06,36,9.70
2012,09,18,06,37,9.70
2012,09,18,06,38,9.80
2012,09,18,06,39,9.80
2012,09,18,06,40,9.80
2012,09,18,06,41,9.70
2012,09,18,06,42,9.70
2012,09,18,06,43,9.70
2012,09,18,06,44,9.70
2012,09,18,06,45,9.70
2012,09,18,06,46,9.70
2012,09,18,06,47,9.70
2012,09,18,06,48,9.80
2012,09,18,06,49,9.80
2012,09,18,06,50,9.80
2012,09,18,06,51,9.80
2012,09,18,06,52,9.80
2012,09,18,06,53,9.80
2012,09,18,06,54,9.80
2012,09,18,06,55,9.80
2012,09,18,06,56,9.80
2012,09,18,06,57,9.70
2012,09,18,06,58,9.70
2012,09,18,06,59,9.70
2012,09,18,07,00,9.60
2012,09,18,07,01,9.60
2012,09,18,07,02,9.50
2012,09,18,07,03,9.50
2012,09,18,07,04,9.40
2012,09,18,07,05,9.40
2012,09,18,07,06,9.40
2012,09,18,07,07,9.30
2012,09,18,07,08,9.30
2012,09,18,07,09,9.30
2012,09,18,07,10,9.30
2012,09,18,07,11,9.30
2012,09,18,07,12,9.30
2012,09,18,07,13,9.30
2012,09,18,07,14,9.30
2012,09,18,07,15,9.40
2012,09,18,07,16,9.40
2012,09,18,07,17,9.40
2012,09,18,07,18,9.40
2012,09,18,07,19,9.40
2012,09,18,07,20,9.40
2012,09,18,07,21,9.50
2012,09,18,07,22,9.50
2012,09,18,07,23,9.50
2012,09,18,07,24,9.60
2012,09,18,07,25,9.60
2012,09,18,07,26,9.60
2012,09,18,07,27,9.60
2012,09,18,07,28,9.70
2012,09,18,07,29,9.70
2012,09,18,07,30,9.60
2012,09,18,07,31,9.60
2012,09,18,07,32,9.60
2012,09,18,07,33,9.60
2012,09,18,07,34,9.60
2012,09,18,07,35,9.60
2012,09,18,07,36,9.60
2012,09,18,07,37,9.60
2012,09,18,07,38,9.60
2012,09,18,07,39,9.50
2012,09,18,07,40,9.50
2012,09,18,07,41,9.50
2012,09,18,07,42,9.50
2012,09,18,07,43,9.50
2012,09,18,07,44,9.40
2012,09,18,07,45,9.40
2012,09,18,07,46,9.40
2012,09,18,07,47,9.40
2012,09,18,07,48,9.40
2012,09,18,07,49,9.40
2012,09,18,07,50,9.40
2012,09,18,07,51,9.40
2012,09,18,07,52,9.40
2012,09,18,07,53,9.40
2012,09,18,07,54,9.40
2012,09,18,07,55,9.50
2012,09,18,07,56,9.50
2012,09,18,07,57,9.50
2012,09,18,07,58,9.60
2012,09,18,07,59,9.60
2012,09,18,08,00,9.60
2012,09,18,08,01,9.60
2012,09,18,08,02,9.70
2012,09,18,08,03,9.70
2012,09,18,08,04,9.70
2012,09,18,08,05,9.70
2012,09,18,08,06,9.80
2012,09,18,08,07,9.80
2012,09,18,08,08,9.80
2012,09,18,08,09,9.80
2012,09,18,08,10,9.80
2012,09,18,08,11,9.80
2012,09,18,08,12,9.80
2012,09,18,08,13,9.80
2012,09,18,08,14,9.80
2012,09,18,08,15,9.80
2012,09,18,08,16,9.80
2012,09,18,08,17,9.90
2012,09,18,08,18,9.90
2012,09,18,08,19,9.90
2012,09,18,08,20,10.00
2012,09,18,08,21,10.00
2012,09,18,08,22,10.00
2012,09,18,08,23,10.00
2012,09,18,08,24,10.00
2012,09,18,08,25,10.00
2012,09,18,08,26,10.10
2012,09,18,08,27,10.20
2012,09,18,08,28,10.20
2012,09,18,08,29,10.20
2012,09,18,08,30,10.20
2012,09,18,08,31,10.20
2012,09,18,08,32,10.30
2012,09,18,08,33,10.30
2012,09,18,08,34,10.30
2012,09,18,08,35,10.30
2012,09,18,08,36,10.30
2012,09,18,08,37,10.40
2012,09,18,08,38,10.40
2012,09,18,08,39,10.50
2012,09,18,08,40,10.50
2012,09,18,08,41,10.60
2012,09,18,08,42,10.70
2012,09,18,08,43,10.80
2012,09,18,08,44,11.00
2012,09,18,08,45,11.10
2012,09,18,08,46,11.20
2012,09,18,08,47,11.30
2012,09,18,08,48,11.30
2012,09,18,08,49,11.40
2012,09,18,08,50,11.50
2012,09,18,08,51,11.50
2012,09,18,08,52,11.60
2012,09,18,08,53,11.70
2012,09,18,08,54,11.80
2012,09,18,08,55,11.90
2012,09,18,08,56,12.00
2012,09,18,08,57,12.10
2012,09,18,08,58,12.20
2012,09,18,08,59,12.30
2012,09,18,09,00,12.40
2012,09,18,09,01,12.50
2012,09,18,09,02,12.50
2012,09,18,09,03,12.60
2012,09,18,09,04,12.70
2012,09,18,09,05,12.80
2012,09,18,09,06,12.90
2012,09,18,09,07,13.00
2012,09,18,09,08,13.10
2012,09,18,09,09,13.20
2012,09,18,09,10,13.20
2012,09,18,09,11,13.30
2012,09,18,09,12,13.40
2012,09,18,09,13,13.50
2012,09,18,09,14,13.60
2012,09,18,09,15,13.70
2012,09,18,09,16,13.80
2012,09,18,09,17,13.90
2012,09,18,09,18,14.00
2012,09,18,09,19,14.00
2012,09,18,09,20,14.10
2012,09,18,09,21,14.20
2012,09,18,09,22,14.20
2012,09,18,09,23,14.30
2012,09,18,09,24,14.40
2012,09,18,09,25,14.50
2012,09,18,09,26,14.50
2012,09,18,09,27,14.60
2012,09,18,09,28,14.70
2012,09,18,09,29,14.80
2012,09,18,09,30,14.90
2012,09,18,09,31,15.00
2012,09,18,09,32,15.10
2012,09,18,09,33,15.20
2012,09,18,09,34,15.30
2012,09,18,09,35,15.40
2012,09,18,09,36,15.50
2012,09,18,09,37,15.60
2012,09,18,09,38,15.60
2012,09,18,09,39,15.70
2012,09,18,09,40,15.80
2012,09,18,09,41,15.80
2012,09,18,09,42,15.90
2012,09,18,09,43,16.00
2012,09,18,09,44,16.10
2012,09,18,09,45,16.10
2012,09,18,09,46,16.20
2012,09,18,09,47,16.30
2012,09,18,09,48,16.40
2012,09,18,09,49,16.40
2012,09,18,09,50,16.50
2012,09,18,09,51,16.60
2012,09,18,09,52,16.70
2012,09,18,09,53,16.80
2012,09,18,09,54,16.90
2012,09,18,09,55,17.00
2012,09,18,09,56,17.10
2012,09,18,09,57,17.20
2012,09,18,09,58,17.20
2012,09,18,09,59,17.30
2012,09,18,10,00,17.40
2012,09,18,10,01,17.50
2012,09,18,10,02,17.60
2012,09,18,10,03,17.60
2012,09,18,10,04,17.70
2012,09,18,10,05,17.70
2012,09,18,10,06,17.80
2012,09,18,10,07,17.90
2012,09,18,10,08,18.00
2012,09,18,10,09,18.10
2012,09,18,10,10,18.20
2012,09,18,10,11,18.30
2012,09,18,10,12,18.40
2012,09,18,10,13,18.50
2012,09,18,10,14,18.60
2012,09,18,10,15,18.70
2012,09,18,10,16,18.70
2012,09,18,10,17,18.80
2012,09,18,10,18,18.90
2012,09,18,10,19,18.90
2012,09,18,10,20,19.00
2012,09,18,10,21,19.10
2012,09,18,10,22,19.20
2012,09,18,10,23,19.20
2012,09,18,10,24,19.20
2012,09,18,10,25,19.20
2012,09,18,10,26,19.20
2012,09,18,10,27,19.00
2012,09,18,10,28,18.90
2012,09,18,10,29,18.70
2012,09,18,10,30,18.60
2012,09,18,10,31,18.50
2012,09,18,10,32,18.40
2012,09,18,10,33,18.20
2012,09,18,10,34,18.10
2012,09,18,10,35,17.90
2012,09,18,10,36,17.80
2012,09,18,10,37,17.80
2012,09,18,10,38,17.70
2012,09,18,10,39,17.70
2012,09,18,10,40,17.70
2012,09,18,10,41,17.60
2012,09,18,10,42,17.60
2012,09,18,10,43,17.60
2012,09,18,10,44,17.70
2012,09,18,10,45,17.70
2012,09,18,10,46,17.70
2012,09,18,10,47,17.80
2012,09,18,10,48,17.80
2012,09,18,10,49,17.80
2012,09,18,10,50,17.80
2012,09,18,10,51,17.90
2012,09,18,10,52,17.90
2012,09,18,10,53,18.00
2012,09,18,10,54,18.00
2012,09,18,10,55,18.10
2012,09,18,10,56,18.20
2012,09,18,10,57,18.20
2012,09,18,10,58,18.20
2012,09,18,10,59,18.20
2012,09,18,11,00,18.20
2012,09,18,11,01,18.20
2012,09,18,11,02,18.20
2012,09,18,11,03,18.20
2012,09,18,11,04,18.30
2012,09,18,11,05,18.30
2012,09,18,11,06,18.40
2012,09,18,11,07,18.40
2012,09,18,11,08,18.50
2012,09,18,11,09,18.50
2012,09,18,11,10,18.60
2012,09,18,11,11,18.70
2012,09,18,11,12,18.80
2012,09,18,11,13,18.90
2012,09,18,11,14,18.90
2012,09,18,11,15,19.00
2012,09,18,11,16,19.00
2012,09,18,11,17,19.00
2012,09,18,11,18,19.00
2012,09,18,11,19,19.10
2012,09,18,11,20,19.00
2012,09,18,11,21,19.00
2012,09,18,11,22,18.90
2012,09,18,11,23,18.80
2012,09,18,11,24,18.80
2012,09,18,11,25,18.70
2012,09,18,11,26,18.70
2012,09,18,11,27,18.70
2012,09,18,11,28,18.70
2012,09,18,11,29,18.60
2012,09,18,11,30,18.60
2012,09,18,11,31,18.60
2012,09,18,11,32,18.60
2012,09,18,11,33,18.70
2012,09,18,11,34,18.80
2012,09,18,11,35,18.90
2012,09,18,11,36,19.00
2012,09,18,11,37,19.20
2012,09,18,11,38,19.30
2012,09,18,11,39,19.50
2012,09,18,11,40,19.60
2012,09,18,11,41,19.70
2012,09,18,11,42,19.80
2012,09,18,11,43,19.90
2012,09,18,11,44,20.00
2012,09,18,11,45,20.10
2012,09,18,11,46,20.20
2012,09,18,11,47,20.30
2012,09,18,11,48,20.40
2012,09,18,11,49,20.50
2012,09,18,11,50,20.60
2012,09,18,11,51,20.60
2012,09,18,11,52,20.70
2012,09,18,11,53,20.70
2012,09,18,11,54,20.70
2012,09,18,11,55,20.70
2012,09,18,11,56,20.60
2012,09,18,11,57,20.40
2012,09,18,11,58,20.20
2012,09,18,11,59,20.10
2012,09,18,12,00,20.00
2012,09,18,12,01,20.00
2012,09,18,12,02,19.90
2012,09,18,12,03,19.80
2012,09,18,12,04,19.70
2012,09,18,12,05,19.70
2012,09,18,12,06,19.60
2012,09,18,12,07,19.60
2012,09,18,12,08,19.60
2012,09,18,12,09,19.50
2012,09,18,12,10,19.50
2012,09,18,12,11,19.40
2012,09,18,12,12,19.40
2012,09,18,12,13,19.40
2012,09,18,12,14,19.40
2012,09,18,12,15,19.40
2012,09,18,12,16,19.40
2012,09,18,12,17,19.40
2012,09,18,12,18,19.50
2012,09,18,12,19,19.50
2012,09,18,12,20,19.50
2012,09,18,12,21,19.50
2012,09,18,12,22,19.60
2012,09,18,12,23,19.60
2012,09,18,12,24,19.60
2012,09,18,12,25,19.60
2012,09,18,12,26,19.60
2012,09,18,12,27,19.60
2012,09,18,12,28,19.60
2012,09,18,12,29,19.60
2012,09,18,12,30,19.60
2012,09,18,12,31,19.50
2012,09,18,12,32,19.50
2012,09,18,12,33,19.40
2012,09,18,12,34,19.40
2012,09,18,12,35,19.30
2012,09,18,12,36,19.40
2012,09,18,12,37,19.40
2012,09,18,12,38,19.50
2012,09,18,12,39,19.60
2012,09,18,12,40,19.60
2012,09,18,12,41,19.80
2012,09,18,12,42,19.90
2012,09,18,12,43,20.00
2012,09,18,12,44,20.10
2012,09,18,12,45,20.10
2012,09,18,12,46,20.20
2012,09,18,12,47,20.20
2012,09,18,12,48,20.20
2012,09,18,12,49,20.20
2012,09,18,12,50,20.20
2012,09,18,12,51,20.20
2012,09,18,12,52,20.20
2012,09,18,12,53,20.30
2012,09,18,12,54,20.30
2012,09,18,12,55,20.30
2012,09,18,12,56,20.30
2012,09,18,12,57,20.30
2012,09,18,12,58,20.30
2012,09,18,12,59,20.20
2012,09,18,13,00,20.10
2012,09,18,13,01,20.10
2012,09,18,13,02,20.00
2012,09,18,13,03,19.90
2012,09,18,13,04,19.80
2012,09,18,13,05,19.70
2012,09,18,13,06,19.70
2012,09,18,13,07,19.70
2012,09,18,13,08,19.70
2012,09,18,13,09,19.70
2012,09,18,13,10,19.70
2012,09,18,13,11,19.70
2012,09,18,13,12,19.70
2012,09,18,13,13,19.70
2012,09,18,13,14,19.80
2012,09,18,13,15,19.90
2012,09,18,13,16,20.00
2012,09,18,13,17,20.00
2012,09,18,13,18,20.10
2012,09,18,13,19,20.10
2012,09,18,13,20,20.10
2012,09,18,13,21,20.10
2012,09,18,13,22,20.00
2012,09,18,13,23,20.00
2012,09,18,13,24,19.90
2012,09,18,13,25,19.80
2012,09,18,13,26,19.80
2012,09,18,13,27,19.80
2012,09,18,13,28,19.70
2012,09,18,13,29,19.70
2012,09,18,13,30,19.70
2012,09,18,13,31,19.60
2012,09,18,13,32,19.60
2012,09,18,13,33,19.50
2012,09,18,13,34,19.50
2012,09,18,13,35,19.50
2012,09,18,13,36,19.40
2012,09,18,13,37,19.40
2012,09,18,13,38,19.40
2012,09,18,13,39,19.40
2012,09,18,13,40,19.40
2012,09,18,13,41,19.40
2012,09,18,13,42,19.40
2012,09,18,13,43,19.30
2012,09,18,13,44,19.20
2012,09,18,13,45,19.20
2012,09,18,13,46,19.10
2012,09,18,13,47,19.00
2012,09,18,13,48,18.90
2012,09,18,13,49,18.90
2012,09,18,13,50,18.80
2012,09,18,13,51,18.80
2012,09,18,13,52,18.80
2012,09,18,13,53,18.90
2012,09,18,13,54,18.90
2012,09,18,13,55,19.00
2012,09,18,13,56,19.10
2012,09,18,13,57,19.30
2012,09,18,13,58,19.40
2012,09,18,13,59,19.60
2012,09,18,14,00,19.70
2012,09,18,14,01,19.90
2012,09,18,14,02,20.00
2012,09,18,14,03,20.20
2012,09,18,14,04,20.30
2012,09,18,14,05,20.50
2012,09,18,14,06,20.60
2012,09,18,14,07,20.60
2012,09,18,14,08,20.60
2012,09,18,14,09,20.60
2012,09,18,14,10,20.60
2012,09,18,14,11,20.60
2012,09,18,14,12,20.60
2012,09,18,14,13,20.60
2012,09,18,14,14,20.70
2012,09,18,14,15,20.70
2012,09,18,14,16,20.70
2012,09,18,14,17,20.70
2012,09,18,14,18,20.70
2012,09,18,14,19,20.80
2012,09,18,14,20,20.80
2012,09,18,14,21,20.80
2012,09,18,14,22,20.80
2012,09,18,14,23,20.80
2012,09,18,14,24,20.80
2012,09,18,14,25,20.80
2012,09,18,14,26,20.80
2012,09,18,14,27,20.90
2012,09,18,14,28,21.10
2012,09,18,14,29,21.20
2012,09,18,14,30,21.40
2012,09,18,14,31,21.50
2012,09,18,14,32,21.60
2012,09,18,14,33,21.70
2012,09,18,14,34,21.80
2012,09,18,14,35,21.80
2012,09,18,14,36,21.80
2012,09,18,14,37,21.80
2012,09,18,14,38,21.80
2012,09,18,14,39,21.70
2012,09,18,14,40,21.70
2012,09,18,14,41,21.80
2012,09,18,14,42,21.80
2012,09,18,14,43,21.80
2012,09,18,14,44,21.80
2012,09,18,14,45,21.70
2012,09,18,14,46,21.70
2012,09,18,14,47,21.70
2012,09,18,14,48,21.70
2012,09,18,14,49,21.70
2012,09,18,14,50,21.80
2012,09,18,14,51,21.80
2012,09,18,14,52,21.80
2012,09,18,14,53,21.80
2012,09,18,14,54,21.80
2012,09,18,14,55,21.80
2012,09,18,14,56,21.70
2012,09,18,14,57,21.60
2012,09,18,14,58,21.50
2012,09,18,14,59,21.50
2012,09,18,15,00,21.40
2012,09,18,15,01,21.40
2012,09,18,15,02,21.40
2012,09,18,15,03,21.40
2012,09,18,15,04,21.40
2012,09,18,15,05,21.50
2012,09,18,15,06,21.50
2012,09,18,15,07,21.60
2012,09,18,15,08,21.60
2012,09,18,15,09,21.60
2012,09,18,15,10,21.60
2012,09,18,15,11,21.70
2012,09,18,15,12,21.70
2012,09,18,15,13,21.70
2012,09,18,15,14,21.80
2012,09,18,15,15,21.80
2012,09,18,15,16,21.80
2012,09,18,15,17,21.80
2012,09,18,15,18,21.80
2012,09,18,15,19,21.80
2012,09,18,15,20,21.80
2012,09,18,15,21,21.80
2012,09,18,15,22,21.80
2012,09,18,15,23,21.90
2012,09,18,15,24,21.90
2012,09,18,15,25,21.90
2012,09,18,15,26,21.90
2012,09,18,15,27,22.00
2012,09,18,15,28,22.00
2012,09,18,15,29,22.10
2012,09,18,15,30,22.10
2012,09,18,15,31,22.20
2012,09,18,15,32,22.20
2012,09,18,15,33,22.30
2012,09,18,15,34,22.30
2012,09,18,15,35,22.30
2012,09,18,15,36,22.30
2012,09,18,15,37,22.40
2012,09,18,15,38,22.30
2012,09,18,15,39,22.30
2012,09,18,15,40,22.30
2012,09,18,15,41,22.30
2012,09,18,15,42,22.30
2012,09,18,15,43,22.30
2012,09,18,15,44,22.30
2012,09,18,15,45,22.30
2012,09,18,15,46,22.40
2012,09,18,15,47,22.40
2012,09,18,15,48,22.40
2012,09,18,15,49,22.40
2012,09,18,15,50,22.40
2012,09,18,15,51,22.40
2012,09,18,15,52,22.40
2012,09,18,15,53,22.40
2012,09,18,15,54,22.50
2012,09,18,15,55,22.50
2012,09,18,15,56,22.50
2012,09,18,15,57,22.40
2012,09,18,15,58,22.50
2012,09,18,15,59,22.50
2012,09,18,16,00,22.50
2012,09,18,16,01,22.50
2012,09,18,16,02,22.50
2012,09,18,16,03,22.60
2012,09,18,16,04,22.60
2012,09,18,16,05,22.70
2012,09,18,16,06,22.70
2012,09,18,16,07,22.80
2012,09,18,16,08,22.80
2012,09,18,16,09,22.80
2012,09,18,16,10,22.90
2012,09,18,16,11,22.90
2012,09,18,16,12,23.00
2012,09,18,16,13,23.00
2012,09,18,16,14,23.10
2012,09,18,16,15,23.10
2012,09,18,16,16,23.10
2012,09,18,16,17,23.10
2012,09,18,16,18,23.00
2012,09,18,16,19,22.90
2012,09,18,16,20,22.60
2012,09,18,16,21,22.30
2012,09,18,16,22,22.00
2012,09,18,16,23,21.70
2012,09,18,16,24,21.40
2012,09,18,16,25,21.10
2012,09,18,16,26,20.80
2012,09,18,16,27,20.60
2012,09,18,16,28,20.40
2012,09,18,16,29,20.10
2012,09,18,16,30,19.90
2012,09,18,16,31,19.70
2012,09,18,16,32,19.50
2012,09,18,16,33,19.40
2012,09,18,16,34,19.20
2012,09,18,16,35,19.10
2012,09,18,16,36,19.00
2012,09,18,16,37,18.90
2012,09,18,16,38,18.80
2012,09,18,16,39,18.70
2012,09,18,16,40,18.70
2012,09,18,16,41,18.60
2012,09,18,16,42,18.50
2012,09,18,16,43,18.40
2012,09,18,16,44,18.30
2012,09,18,16,45,18.30
2012,09,18,16,46,18.20
2012,09,18,16,47,18.20
2012,09,18,16,48,18.20
2012,09,18,16,49,18.10
2012,09,18,16,50,18.10
2012,09,18,16,51,18.10
2012,09,18,16,52,18.10
2012,09,18,16,53,18.10
2012,09,18,16,54,18.10
2012,09,18,16,55,18.10
2012,09,18,16,56,18.20
2012,09,18,16,57,18.20
2012,09,18,16,58,18.30
2012,09,18,16,59,18.40
2012,09,18,17,00,18.50
2012,09,18,17,01,18.60
2012,09,18,17,02,18.60
2012,09,18,17,03,18.70
2012,09,18,17,04,18.60
2012,09,18,17,05,18.60
2012,09,18,17,06,18.60
2012,09,18,17,07,18.60
2012,09,18,17,08,18.60
2012,09,18,17,09,18.50
2012,09,18,17,10,18.50
2012,09,18,17,11,18.40
2012,09,18,17,12,18.40
2012,09,18,17,13,18.30
2012,09,18,17,14,18.30
2012,09,18,17,15,18.20
2012,09,18,17,16,18.10
2012,09,18,17,17,18.00
2012,09,18,17,18,18.00
2012,09,18,17,19,18.00
2012,09,18,17,20,17.90
2012,09,18,17,21,17.90
2012,09,18,17,22,17.90
2012,09,18,17,23,17.80
2012,09,18,17,24,17.80
2012,09,18,17,25,17.70
2012,09,18,17,26,17.70
2012,09,18,17,27,17.60
2012,09,18,17,28,17.60
2012,09,18,17,29,17.60
2012,09,18,17,30,17.60